Location: Peralejo
(40.5415°N, 4.1259°W)
Time: 02:47:44
(UTC+00:00)

Genesis I - Pass Details

Date: 18 April 2024
Orbit: 439 x 467 km, 64.5° (Epoch: 18 May)

Event Time Altitude Azimuth Distance (km) Brightness Sun altitude
Rises 20:49:36 0° 331° (NNW) 2,525 7.8 -19.7°
Reaches altitude 10° 20:51:47 10° 336° (NNW) 1,648 6.6 -20.0°
Enters shadow 20:55:20 53° 51° (NE) 591 3.3 -20.6°
